Location: ????????
(55.3155°N, 39.2900°E)
Time: 13:29:23
(UTC+00:00)

H-2A R/B - Pass Details

Date: 14 April 2024
Orbit: 732 x 833 km, 98.2° (Epoch: 23 May)

Event Time Altitude Azimuth Distance (km) Brightness Sun altitude
Rises 01:20:07 0° 20° (NNE) 3,186 6.1 -8.7°
Reaches altitude 10° 01:22:34 10° 29° (NNE) 2,266 5.5 -8.4°
Maximum altitude 01:27:09 36° 96° (E) 1,175 3.6 -7.8°
Drops below altitude 10° 01:31:49 10° 163° (SSE) 2,298 4.4 -7.2°
Sets 01:34:18 0° 172° (S) 3,236 5.0 -6.9°
